Melbourne, FL

5:52 AM EDT on April 25, 2018 (GMT -0400)
Melbourne International

Weather History for KMLB - August, 2013

Change the Weather History Date:

Friday, August 2, 2013

  Actual Average Record
Temperature  
Mean Temperature 81 °F 82 °F  
Max Temperature 88 °F 91 °F 101 °F (1999)
Min Temperature 74 °F 73 °F 67 °F (1967)
Degree Days  
Heating Degree Days 0 0  
Month to date heating degree days 0 0  
Since 1 June heating degree days 0 0  
Since 1 July heating degree days 0 0  
Cooling Degree Days 16 17  
Month to date cooling degree days 33 34  
Year to date cooling degree days 1922 1738  
Since 1 June cooling degree days 1061 1012  
Growing Degree Days 32 (Base 50)    
Moisture  
Dew Point 73 °F    
Average Humidity 78    
Maximum Humidity 94    
Minimum Humidity 61    
Precipitation  
Precipitation T in 0.24 in 9.06 in (1995)
Month to date precipitation T 0.48  
Year to date precipitation 28.98 26.65  
Sea Level Pressure  
Sea Level Pressure 30.00 in    
Wind  
Wind Speed 6 mph (NE)    
Max Wind Speed 22 mph    
Max Gust Speed 26 mph    
Visibility 10 miles    
Events Thunderstorm    
T = Trace of Precipitation, MM = Missing Value Source: NWS Daily Summary

Daily Weather History Graph

Daily Weather History Graph

Search for Another Location

Airport or City:

Astronomy

Aug. 02, 2013 Rise Set
Actual Time 6:45 AM EDT 8:11 PM EDT
Civil Twilight 6:20 AM EDT 8:36 PM EDT
Nautical Twilight 5:50 AM EDT 9:07 PM EDT
Astronomical Twilight 5:18 AM EDT 9:38 PM EDT
Moon 3:09 AM EDT (8/2) 5:04 PM EDT (8/2)
Length of Visible Light 14h 16m
Length of Day
13h 25m
Waning Crescent, 16% of the Moon is Illuminated
Aug 2
Waning Crescent
Aug 6
New
Aug 14
First Quarter
Aug 20
Full
Aug 28
Last Quarter

Hourly Weather History & Observations

Time (EDT) Temp. Heat Index Dew Point Humidity Pressure Visibility Wind Dir Wind Speed Gust Speed Precip Events Conditions
12:53 AM 81.0 °F 86.2 °F 73.9 °F 79% 30.00 in 10.0 mi SE 6.9 mph - N/A   Partly Cloudy
1:53 AM 81.0 °F 85.8 °F 73.0 °F 77% 29.98 in 10.0 mi SE 6.9 mph - N/A   Partly Cloudy
2:53 AM 81.0 °F 85.8 °F 73.0 °F 77% 29.97 in 10.0 mi SE 4.6 mph - N/A   Clear
3:53 AM 75.9 °F - 73.0 °F 91% 29.96 in 10.0 mi WNW 3.5 mph - N/A   Partly Cloudy
4:53 AM 75.9 °F - 73.0 °F 91% 29.95 in 10.0 mi Calm Calm - N/A   Clear
5:53 AM 75.9 °F - 73.0 °F 91% 29.96 in 10.0 mi Calm Calm - N/A   Clear
6:53 AM 75.0 °F - 73.0 °F 94% 29.98 in 10.0 mi Calm Calm - N/A   Partly Cloudy
7:53 AM 78.1 °F - 75.9 °F 93% 29.98 in 10.0 mi Calm Calm - N/A   Partly Cloudy
8:53 AM 80.1 °F 85.1 °F 75.0 °F 85% 29.99 in 10.0 mi NW 5.8 mph - N/A   Scattered Clouds
9:53 AM 84.0 °F 93.7 °F 77.0 °F 79% 30.01 in 10.0 mi NW 6.9 mph - 0.00 in   Scattered Clouds
10:53 AM 86.0 °F 92.2 °F 72.0 °F 63% 30.01 in 10.0 mi NE 10.4 mph - N/A   Scattered Clouds
11:53 AM 88.0 °F 95.6 °F 73.0 °F 61% 30.03 in 10.0 mi ENE 9.2 mph - N/A   Partly Cloudy
12:53 PM 86.0 °F 92.2 °F 72.0 °F 63% 30.03 in 10.0 mi NE 15.0 mph - N/A   Scattered Clouds
1:53 PM 81.0 °F 85.2 °F 72.0 °F 74% 30.01 in 10.0 mi NE 12.7 mph - N/A Thunderstorm Scattered Clouds
2:53 PM 84.9 °F 89.4 °F 70.0 °F 61% 30.01 in 10.0 mi NE 10.4 mph - N/A   Scattered Clouds
3:53 PM 84.9 °F 90.7 °F 72.0 °F 65% 29.99 in 10.0 mi ENE 10.4 mph - N/A   Scattered Clouds
4:53 PM 84.0 °F 89.6 °F 72.0 °F 67% 29.98 in 10.0 mi NE 9.2 mph - N/A   Partly Cloudy
5:53 PM 86.0 °F 92.2 °F 72.0 °F 63% 29.98 in 10.0 mi NE 10.4 mph - N/A   Scattered Clouds
6:53 PM 84.9 °F 90.7 °F 72.0 °F 65% 29.99 in 10.0 mi ENE 10.4 mph - N/A   Partly Cloudy
7:53 PM 82.0 °F 87.4 °F 73.0 °F 74% 30.00 in 10.0 mi NNE 4.6 mph - N/A   Clear
8:53 PM 80.1 °F 84.2 °F 73.0 °F 79% 30.02 in 10.0 mi West 3.5 mph - N/A   Clear
9:53 PM 80.1 °F 84.2 °F 73.0 °F 79% 30.03 in 10.0 mi Calm Calm - N/A   Clear
10:53 PM 79.0 °F - 73.0 °F 82% 30.03 in 10.0 mi West 8.1 mph - N/A   Clear
11:53 PM 78.1 °F - 73.0 °F 84% 30.03 in 10.0 mi WSW 6.9 mph - N/A   Clear